Location: Woodhurst
(52.3667°N, 0.0667°W)
Time: 00:20:17
(UTC+00:00)

Cosmos 2322 Rocket - Pass Details

Date: 19 May 2025
Orbit: 832 x 849 km, 71.0° (Epoch: 18 June)

Event Time Altitude Azimuth Distance (km) Brightness Sun altitude
Rises 21:03:36 0° 326° (NW) 3,421 7.7 -8.5°
Reaches altitude 10° 21:06:51 10° 345° (NNW) 2,481 5.8 -8.8°
Maximum altitude 21:10:47 19° 29° (NNE) 1,927 4.4 -9.2°
Drops below altitude 10° 21:14:42 10° 73° (ENE) 2,467 4.4 -9.5°
Sets 21:17:55 0° 91° (E) 3,395 5.0 -9.8°
